Time,TemperatureF,DewpointF,PressureIn,WindDirection,WindDirectionDegrees,WindSpeedMPH,WindSpeedGustMPH,Humidity,HourlyPrecipIn,Conditions,Clouds,dailyrainin,SoftwareType,DateUTC
2013-09-06 00:01:00,47.7,44.6,30.12,NNW,335,0.0,1.0,89,0.00,,,0.00,Wunderground v.1.15,2013-09-06 04:01:00,
2013-09-06 00:02:00,47.7,44.6,30.12,NNW,335,0.0,1.0,89,0.00,,,0.00,Wunderground v.1.15,2013-09-06 04:02:00,
2013-09-06 00:03:00,47.8,44.7,30.12,NNW,335,1.0,1.0,89,0.00,,,0.00,Wunderground v.1.15,2013-09-06 04:03:00,
2013-09-06 00:07:00,47.8,44.7,30.12,NW,322,1.0,1.0,89,0.00,,,0.00,Wunderground v.1.15,2013-09-06 04:07:00,
2013-09-06 00:13:00,47.9,44.8,30.12,NW,322,1.0,1.0,89,0.00,,,0.00,Wunderground v.1.15,2013-09-06 04:13:00,
2013-09-06 00:19:00,47.9,44.8,30.12,NW,319,0.0,1.0,89,0.00,,,0.00,Wunderground v.1.15,2013-09-06 04:19:00,
2013-09-06 00:26:00,47.9,44.8,30.13,NW,319,1.0,1.0,89,0.00,,,0.00,Wunderground v.1.15,2013-09-06 04:26:00,
2013-09-06 00:29:00,47.9,44.8,30.13,NW,319,1.0,1.0,89,0.00,,,0.00,Wunderground v.1.15,2013-09-06 04:29:00,
2013-09-06 00:36:00,48.0,44.9,30.13,NW,319,1.0,2.0,89,0.00,,,0.00,Wunderground v.1.15,2013-09-06 04:36:00,
2013-09-06 00:42:00,48.1,45.0,30.13,NW,319,1.0,2.0,89,0.00,,,0.00,Wunderground v.1.15,2013-09-06 04:42:00,
2013-09-06 00:47:00,48.2,45.1,30.13,NW,322,1.0,2.0,89,0.00,,,0.00,Wunderground v.1.15,2013-09-06 04:47:00,
2013-09-06 00:48:00,48.2,45.1,30.13,NW,323,1.0,2.0,89,0.00,,,0.00,Wunderground v.1.15,2013-09-06 04:48:00,
2013-09-06 00:54:00,48.3,45.2,30.13,WNW,295,1.0,2.0,89,0.00,,,0.00,Wunderground v.1.15,2013-09-06 04:54:00,
2013-09-06 00:59:00,48.5,45.4,30.13,NW,319,1.0,2.0,89,0.00,,,0.00,Wunderground v.1.15,2013-09-06 04:59:00,
2013-09-06 01:06:00,48.7,45.0,30.14,NW,318,1.0,1.0,87,0.00,,,0.00,Wunderground v.1.15,2013-09-06 05:06:00,
2013-09-06 01:12:00,48.8,45.1,30.14,NW,319,0.0,1.0,87,0.00,,,0.00,Wunderground v.1.15,2013-09-06 05:12:00,
2013-09-06 01:17:00,48.9,44.6,30.14,WNW,292,1.0,2.0,85,0.00,,,0.00,Wunderground v.1.15,2013-09-06 05:17:00,
2013-09-06 01:22:00,49.0,44.7,30.14,WNW,297,1.0,1.0,85,0.00,,,0.00,Wunderground v.1.15,2013-09-06 05:22:00,
2013-09-06 01:28:00,49.1,44.5,30.13,WNW,296,1.0,2.0,84,0.00,,,0.00,Wunderground v.1.15,2013-09-06 05:28:00,
2013-09-06 01:34:00,49.2,44.6,30.13,WNW,296,1.0,1.0,84,0.00,,,0.00,Wunderground v.1.15,2013-09-06 05:34:00,
2013-09-06 01:39:00,49.2,44.3,30.13,WNW,296,0.0,1.0,83,0.00,,,0.00,Wunderground v.1.15,2013-09-06 05:39:00,
2013-09-06 01:44:00,49.2,44.3,30.13,WNW,296,0.0,1.0,83,0.00,,,0.00,Wunderground v.1.15,2013-09-06 05:44:00,
2013-09-06 01:51:00,49.2,44.3,30.13,NW,308,1.0,1.0,83,0.00,,,0.00,Wunderground v.1.15,2013-09-06 05:51:00,
2013-09-06 01:57:00,49.2,44.6,30.14,WNW,300,1.0,2.0,84,0.00,,,0.00,Wunderground v.1.15,2013-09-06 05:57:00,
2013-09-06 02:02:00,49.0,44.1,30.14,WNW,300,1.0,2.0,83,0.00,,,0.00,Wunderground v.1.15,2013-09-06 06:02:00,
2013-09-06 02:07:00,48.8,43.5,30.14,NNW,338,1.0,2.0,82,0.00,,,0.00,Wunderground v.1.15,2013-09-06 06:07:00,
2013-09-06 02:13:00,48.7,43.8,30.14,NNW,331,1.0,1.0,83,0.00,,,0.00,Wunderground v.1.15,2013-09-06 06:13:00,
2013-09-06 02:19:00,48.6,43.7,30.14,NW,306,1.0,1.0,83,0.00,,,0.00,Wunderground v.1.15,2013-09-06 06:19:00,
2013-09-06 02:26:00,48.3,43.4,30.14,NW,306,0.0,1.0,83,0.00,,,0.00,Wunderground v.1.15,2013-09-06 06:26:00,
2013-09-06 02:32:00,48.1,43.5,30.15,NW,306,0.0,1.0,84,0.00,,,0.00,Wunderground v.1.15,2013-09-06 06:32:00,
2013-09-06 02:38:00,48.0,43.7,30.15,NW,306,1.0,1.0,85,0.00,,,0.00,Wunderground v.1.15,2013-09-06 06:38:00,
2013-09-06 02:44:00,47.8,43.5,30.15,NW,306,1.0,1.0,85,0.00,,,0.00,Wunderground v.1.15,2013-09-06 06:44:00,
2013-09-06 02:51:00,47.5,43.2,30.15,NW,306,0.0,0.0,85,0.00,,,0.00,Wunderground v.1.15,2013-09-06 06:51:00,
2013-09-06 02:57:00,47.2,43.2,30.15,NW,306,0.0,0.0,86,0.00,,,0.00,Wunderground v.1.15,2013-09-06 06:57:00,
2013-09-06 03:03:00,46.9,42.9,30.15,NW,306,0.0,1.0,86,0.00,,,0.00,Wunderground v.1.15,2013-09-06 07:03:00,
2013-09-06 03:09:00,46.6,42.9,30.15,NW,306,1.0,1.0,87,0.00,,,0.00,Wunderground v.1.15,2013-09-06 07:09:00,
2013-09-06 03:14:00,46.3,42.6,30.15,NW,306,0.0,0.0,87,0.00,,,0.00,Wunderground v.1.15,2013-09-06 07:14:00,
2013-09-06 03:21:00,46.0,42.3,30.15,NW,306,0.0,0.0,87,0.00,,,0.00,Wunderground v.1.15,2013-09-06 07:21:00,
2013-09-06 03:27:00,45.8,42.4,30.15,NW,306,0.0,1.0,88,0.00,,,0.00,Wunderground v.1.15,2013-09-06 07:27:00,
2013-09-06 03:33:00,45.6,42.3,30.15,NW,306,0.0,1.0,88,0.00,,,0.00,Wunderground v.1.15,2013-09-06 07:33:00,
2013-09-06 03:39:00,45.4,42.1,30.15,NW,306,1.0,1.0,88,0.00,,,0.00,Wunderground v.1.15,2013-09-06 07:39:00,
2013-09-06 03:46:00,45.2,42.2,30.15,NW,305,1.0,1.0,89,0.00,,,0.00,Wunderground v.1.15,2013-09-06 07:46:00,
2013-09-06 03:52:00,45.1,42.1,30.15,NW,305,0.0,0.0,89,0.00,,,0.00,Wunderground v.1.15,2013-09-06 07:52:00,
2013-09-06 03:58:00,45.0,42.0,30.15,NW,305,0.0,1.0,89,0.00,,,0.00,Wunderground v.1.15,2013-09-06 07:58:00,
2013-09-06 04:04:00,45.0,42.0,30.16,NW,305,0.0,1.0,89,0.00,,,0.00,Wunderground v.1.15,2013-09-06 08:04:00,
2013-09-06 04:09:00,45.0,42.0,30.16,NW,310,1.0,1.0,89,0.00,,,0.00,Wunderground v.1.15,2013-09-06 08:09:00,
2013-09-06 04:14:00,44.9,41.9,30.17,NW,309,1.0,1.0,89,0.00,,,0.00,Wunderground v.1.15,2013-09-06 08:14:00,
2013-09-06 04:21:00,44.9,41.9,30.17,NW,309,1.0,1.0,89,0.00,,,0.00,Wunderground v.1.15,2013-09-06 08:21:00,
2013-09-06 04:27:00,44.9,41.9,30.17,NW,309,1.0,2.0,89,0.00,,,0.00,Wunderground v.1.15,2013-09-06 08:27:00,
2013-09-06 04:33:00,44.8,41.8,30.17,NW,309,1.0,1.0,89,0.00,,,0.00,Wunderground v.1.15,2013-09-06 08:33:00,
2013-09-06 04:39:00,44.8,41.8,30.17,NW,309,0.0,1.0,89,0.00,,,0.00,Wunderground v.1.15,2013-09-06 08:39:00,
2013-09-06 04:44:00,44.8,41.8,30.17,NW,309,1.0,2.0,89,0.00,,,0.00,Wunderground v.1.15,2013-09-06 08:44:00,
2013-09-06 04:51:00,44.8,41.8,30.17,NW,309,1.0,1.0,89,0.00,,,0.00,Wunderground v.1.15,2013-09-06 08:51:00,
2013-09-06 04:56:00,44.7,41.7,30.17,NW,311,0.0,1.0,89,0.00,,,0.00,Wunderground v.1.15,2013-09-06 08:56:00,
2013-09-06 05:02:00,44.6,41.6,30.17,NW,311,0.0,1.0,89,0.00,,,0.00,Wunderground v.1.15,2013-09-06 09:02:00,
2013-09-06 05:07:00,44.5,41.5,30.17,NW,311,0.0,1.0,89,0.00,,,0.00,Wunderground v.1.15,2013-09-06 09:07:00,
2013-09-06 05:13:00,44.3,41.3,30.18,NW,311,0.0,0.0,89,0.00,,,0.00,Wunderground v.1.15,2013-09-06 09:13:00,
2013-09-06 05:18:00,44.2,41.2,30.18,NW,311,0.0,0.0,89,0.00,,,0.00,Wunderground v.1.15,2013-09-06 09:18:00,
2013-09-06 05:23:00,44.1,41.1,30.18,NW,311,0.0,1.0,89,0.00,,,0.00,Wunderground v.1.15,2013-09-06 09:23:00,
2013-09-06 05:29:00,43.9,40.9,30.18,NW,311,0.0,1.0,89,0.00,,,0.00,Wunderground v.1.15,2013-09-06 09:29:00,
2013-09-06 05:34:00,43.7,40.7,30.17,NW,311,0.0,0.0,89,0.00,,,0.00,Wunderground v.1.15,2013-09-06 09:34:00,
2013-09-06 05:41:00,43.5,40.5,30.18,NW,311,0.0,0.0,89,0.00,,,0.00,Wunderground v.1.15,2013-09-06 09:41:00,
2013-09-06 05:46:00,43.3,40.3,30.18,NW,311,0.0,0.0,89,0.00,,,0.00,Wunderground v.1.15,2013-09-06 09:46:00,
2013-09-06 05:52:00,43.1,40.1,30.18,NW,311,0.0,0.0,89,0.00,,,0.00,Wunderground v.1.15,2013-09-06 09:52:00,
2013-09-06 05:57:00,42.9,39.9,30.18,NW,311,0.0,1.0,89,0.00,,,0.00,Wunderground v.1.15,2013-09-06 09:57:00,
2013-09-06 06:03:00,42.8,39.8,30.18,NW,311,0.0,0.0,89,0.00,,,0.00,Wunderground v.1.15,2013-09-06 10:03:00,
2013-09-06 06:08:00,42.7,39.7,30.19,NW,311,0.0,1.0,89,0.00,,,0.00,Wunderground v.1.15,2013-09-06 10:08:00,
2013-09-06 06:14:00,42.5,39.5,30.19,NW,311,0.0,1.0,89,0.00,,,0.00,Wunderground v.1.15,2013-09-06 10:14:00,
2013-09-06 06:21:00,42.2,39.2,30.19,NW,311,0.0,1.0,89,0.00,,,0.00,Wunderground v.1.15,2013-09-06 10:21:00,
2013-09-06 06:27:00,42.0,39.0,30.20,NW,311,1.0,1.0,89,0.00,,,0.00,Wunderground v.1.15,2013-09-06 10:27:00,
2013-09-06 06:33:00,41.9,38.9,30.20,NW,311,1.0,1.0,89,0.00,,,0.00,Wunderground v.1.15,2013-09-06 10:33:00,
2013-09-06 06:39:00,41.8,38.8,30.20,NW,311,1.0,1.0,89,0.00,,,0.00,Wunderground v.1.15,2013-09-06 10:39:00,
2013-09-06 06:46:00,41.7,38.7,30.20,NW,314,1.0,1.0,89,0.00,,,0.00,Wunderground v.1.15,2013-09-06 10:46:00,
2013-09-06 06:52:00,41.8,38.8,30.20,NW,313,1.0,1.0,89,0.00,,,0.00,Wunderground v.1.15,2013-09-06 10:52:00,
2013-09-06 06:58:00,41.9,38.9,30.20,NW,313,1.0,1.0,89,0.00,,,0.00,Wunderground v.1.15,2013-09-06 10:58:00,
2013-09-06 07:04:00,42.2,39.2,30.20,NW,313,1.0,1.0,89,0.00,,,0.00,Wunderground v.1.15,2013-09-06 11:04:00,
2013-09-06 07:09:00,42.4,39.4,30.20,NW,313,1.0,1.0,89,0.00,,,0.00,Wunderground v.1.15,2013-09-06 11:09:00,
2013-09-06 07:14:00,42.7,39.7,30.21,NW,317,1.0,2.0,89,0.00,,,0.00,Wunderground v.1.15,2013-09-06 11:14:00,
2013-09-06 07:21:00,43.2,40.2,30.21,NW,318,1.0,1.0,89,0.00,,,0.00,Wunderground v.1.15,2013-09-06 11:21:00,
2013-09-06 07:26:00,43.6,40.6,30.21,NW,314,1.0,1.0,89,0.00,,,0.00,Wunderground v.1.15,2013-09-06 11:26:00,
2013-09-06 07:31:00,44.1,41.1,30.21,NW,314,1.0,1.0,89,0.00,,,0.00,Wunderground v.1.15,2013-09-06 11:31:00,
2013-09-06 07:37:00,44.7,41.7,30.21,NW,313,1.0,1.0,89,0.00,,,0.00,Wunderground v.1.15,2013-09-06 11:37:00,
2013-09-06 07:43:00,45.3,42.2,30.21,NW,313,1.0,2.0,89,0.00,,,0.00,Wunderground v.1.15,2013-09-06 11:43:00,
2013-09-06 07:48:00,45.8,42.7,30.21,NW,313,1.0,2.0,89,0.00,,,0.00,Wunderground v.1.15,2013-09-06 11:48:00,
2013-09-06 07:54:00,46.1,43.0,30.21,NW,313,0.0,1.0,89,0.00,,,0.00,Wunderground v.1.15,2013-09-06 11:54:00,
2013-09-06 07:59:00,46.4,43.3,30.21,NW,313,0.0,1.0,89,0.00,,,0.00,Wunderground v.1.15,2013-09-06 11:59:00,
2013-09-06 08:06:00,47.2,44.1,30.21,North,360,0.0,3.0,89,0.00,,,0.00,Wunderground v.1.15,2013-09-06 12:06:00,
2013-09-06 08:12:00,48.4,44.7,30.21,North,360,0.0,1.0,87,0.00,,,0.00,Wunderground v.1.15,2013-09-06 12:12:00,
2013-09-06 08:18:00,49.9,44.9,30.21,ENE,68,0.0,1.0,83,0.00,,,0.00,Wunderground v.1.15,2013-09-06 12:18:00,
2013-09-06 08:24:00,50.6,44.0,30.21,West,277,1.0,3.0,78,0.00,,,0.00,Wunderground v.1.15,2013-09-06 12:24:00,
2013-09-06 08:31:00,51.7,44.0,30.21,ENE,66,1.0,1.0,75,0.00,,,0.00,Wunderground v.1.15,2013-09-06 12:31:00,
2013-09-06 08:36:00,52.4,44.7,30.21,NNW,329,1.0,2.0,75,0.00,,,0.00,Wunderground v.1.15,2013-09-06 12:36:00,
2013-09-06 08:42:00,53.0,44.9,30.21,WNW,296,1.0,1.0,74,0.00,,,0.00,Wunderground v.1.15,2013-09-06 12:42:00,
2013-09-06 08:48:00,53.5,45.1,30.21,NNW,338,1.0,1.0,73,0.00,,,0.00,Wunderground v.1.15,2013-09-06 12:48:00,
2013-09-06 08:54:00,53.9,45.1,30.21,NW,315,1.0,1.0,72,0.00,,,0.00,Wunderground v.1.15,2013-09-06 12:54:00,
2013-09-06 08:59:00,54.3,45.1,30.22,NNW,332,1.0,1.0,71,0.00,,,0.00,Wunderground v.1.15,2013-09-06 12:59:00,
2013-09-06 09:06:00,55.1,45.9,30.22,WNW,290,1.0,2.0,71,0.00,,,0.00,Wunderground v.1.15,2013-09-06 13:06:00,
2013-09-06 09:12:00,55.7,45.3,30.22,NNE,28,1.0,1.0,68,0.00,,,0.00,Wunderground v.1.15,2013-09-06 13:12:00,
2013-09-06 09:18:00,56.4,46.4,30.23,WNW,300,1.0,2.0,69,0.00,,,0.00,Wunderground v.1.15,2013-09-06 13:18:00,
2013-09-06 09:24:00,57.0,45.7,30.23,NNW,332,1.0,1.0,66,0.00,,,0.00,Wunderground v.1.15,2013-09-06 13:24:00,
2013-09-06 09:31:00,57.3,46.4,30.22,WNW,290,1.0,1.0,67,0.00,,,0.00,Wunderground v.1.15,2013-09-06 13:31:00,
2013-09-06 09:37:00,57.6,45.9,30.23,WNW,282,2.0,3.0,65,0.00,,,0.00,Wunderground v.1.15,2013-09-06 13:37:00,
2013-09-06 09:43:00,58.0,46.3,30.22,North,350,2.0,2.0,65,0.00,,,0.00,Wunderground v.1.15,2013-09-06 13:43:00,
2013-09-06 09:49:00,58.4,45.0,30.22,WNW,287,2.0,4.0,61,0.00,,,0.00,Wunderground v.1.15,2013-09-06 13:49:00,
2013-09-06 09:56:00,59.0,45.6,30.22,North,9,1.0,2.0,61,0.00,,,0.00,Wunderground v.1.15,2013-09-06 13:56:00,
2013-09-06 10:01:00,59.0,45.6,30.22,NNE,28,1.0,1.0,61,0.00,,,0.00,Wunderground v.1.15,2013-09-06 14:01:00,
2013-09-06 10:06:00,59.5,45.2,30.22,WNW,298,2.0,3.0,59,0.00,,,0.00,Wunderground v.1.15,2013-09-06 14:06:00,
2013-09-06 10:12:00,59.9,44.2,30.22,WNW,286,2.0,2.0,56,0.00,,,0.00,Wunderground v.1.15,2013-09-06 14:12:00,
2013-09-06 10:18:00,60.5,44.2,30.22,NW,310,1.0,3.0,55,0.00,,,0.00,Wunderground v.1.15,2013-09-06 14:18:00,
2013-09-06 10:24:00,60.8,43.6,30.22,WNW,292,1.0,2.0,53,0.00,,,0.00,Wunderground v.1.15,2013-09-06 14:24:00,
2013-09-06 10:29:00,60.7,43.0,30.22,East,94,1.0,2.0,52,0.00,,,0.00,Wunderground v.1.15,2013-09-06 14:29:00,
2013-09-06 10:34:00,60.8,45.9,30.22,East,79,1.0,2.0,58,0.00,,,0.00,Wunderground v.1.15,2013-09-06 14:34:00,
2013-09-06 10:41:00,61.2,43.9,30.22,East,86,2.0,2.0,53,0.00,,,0.00,Wunderground v.1.15,2013-09-06 14:41:00,
2013-09-06 10:47:00,61.7,44.4,30.22,SW,232,2.0,2.0,53,0.00,,,0.00,Wunderground v.1.15,2013-09-06 14:47:00,
2013-09-06 10:53:00,61.7,44.4,30.22,North,360,1.0,2.0,53,0.00,,,0.00,Wunderground v.1.15,2013-09-06 14:53:00,
2013-09-06 10:59:00,61.7,42.9,30.22,NE,40,1.0,2.0,50,0.00,,,0.00,Wunderground v.1.15,2013-09-06 14:59:00,
2013-09-06 11:06:00,62.1,43.2,30.22,NW,323,2.0,5.0,50,0.00,,,0.00,Wunderground v.1.15,2013-09-06 15:06:00,
2013-09-06 11:12:00,62.1,41.6,30.22,NNW,345,2.0,2.0,47,0.00,,,0.00,Wunderground v.1.15,2013-09-06 15:12:00,
2013-09-06 11:18:00,62.5,45.1,30.21,NW,323,1.0,2.0,53,0.00,,,0.00,Wunderground v.1.15,2013-09-06 15:18:00,
2013-09-06 11:24:00,62.9,45.0,30.21,West,281,2.0,4.0,52,0.00,,,0.00,Wunderground v.1.15,2013-09-06 15:24:00,
2013-09-06 11:31:00,63.5,44.0,30.21,East,81,3.0,3.0,49,0.00,,,0.00,Wunderground v.1.15,2013-09-06 15:31:00,
2013-09-06 11:37:00,63.0,43.5,30.21,NW,325,2.0,3.0,49,0.00,,,0.00,Wunderground v.1.15,2013-09-06 15:37:00,
2013-09-06 11:43:00,63.0,44.6,30.21,WNW,292,2.0,3.0,51,0.00,,,0.00,Wunderground v.1.15,2013-09-06 15:43:00,
2013-09-06 11:49:00,63.0,44.1,30.21,SSW,213,2.0,4.0,50,0.00,,,0.00,Wunderground v.1.15,2013-09-06 15:49:00,
2013-09-06 11:56:00,62.8,44.4,30.21,NE,44,1.0,2.0,51,0.00,,,0.00,Wunderground v.1.15,2013-09-06 15:56:00,
2013-09-06 12:01:00,62.9,44.0,30.20,NW,313,3.0,3.0,50,0.00,,,0.00,Wunderground v.1.15,2013-09-06 16:01:00,
2013-09-06 12:06:00,63.6,44.6,30.20,West,262,4.0,6.0,50,0.00,,,0.00,Wunderground v.1.15,2013-09-06 16:06:00,
2013-09-06 12:12:00,64.4,45.3,30.20,West,269,2.0,3.0,50,0.00,,,0.00,Wunderground v.1.15,2013-09-06 16:12:00,
2013-09-06 12:18:00,65.5,44.7,30.20,NE,44,1.0,3.0,47,0.00,,,0.00,Wunderground v.1.15,2013-09-06 16:18:00,
2013-09-06 12:24:00,65.4,44.6,30.20,WNW,296,2.0,4.0,47,0.00,,,0.00,Wunderground v.1.15,2013-09-06 16:24:00,
2013-09-06 12:31:00,65.0,43.1,30.20,West,274,2.0,4.0,45,0.00,,,0.00,Wunderground v.1.15,2013-09-06 16:31:00,
2013-09-06 12:37:00,64.8,44.6,30.20,South,188,2.0,4.0,48,0.00,,,0.00,Wunderground v.1.15,2013-09-06 16:37:00,
2013-09-06 12:43:00,65.3,43.4,30.19,NW,311,1.0,3.0,45,0.00,,,0.00,Wunderground v.1.15,2013-09-06 16:43:00,
2013-09-06 12:48:00,65.7,43.2,30.19,ESE,109,1.0,3.0,44,0.00,,,0.00,Wunderground v.1.15,2013-09-06 16:48:00,
2013-09-06 12:54:00,66.3,44.9,30.19,NW,316,2.0,4.0,46,0.00,,,0.00,Wunderground v.1.15,2013-09-06 16:54:00,
2013-09-06 13:01:00,66.2,44.2,30.19,NNE,22,2.0,2.0,45,0.00,,,0.00,Wunderground v.1.15,2013-09-06 17:01:00,
2013-09-06 13:06:00,66.6,46.8,30.19,NNE,24,2.0,3.0,49,0.00,,,0.00,Wunderground v.1.15,2013-09-06 17:06:00,
2013-09-06 13:12:00,67.6,46.1,30.19,South,180,2.0,3.0,46,0.00,,,0.00,Wunderground v.1.15,2013-09-06 17:12:00,
2013-09-06 13:17:00,68.6,47.0,30.19,NNE,26,2.0,3.0,46,0.00,,,0.00,Wunderground v.1.15,2013-09-06 17:17:00,
2013-09-06 13:23:00,67.9,45.2,30.19,NW,305,1.0,5.0,44,0.00,,,0.00,Wunderground v.1.15,2013-09-06 17:23:00,
2013-09-06 13:29:00,68.2,46.6,30.19,SSW,198,2.0,5.0,46,0.00,,,0.00,Wunderground v.1.15,2013-09-06 17:29:00,
2013-09-06 13:36:00,68.0,45.9,30.18,SSE,168,2.0,3.0,45,0.00,,,0.00,Wunderground v.1.15,2013-09-06 17:36:00,
2013-09-06 13:42:00,68.5,46.9,30.18,SSE,163,2.0,5.0,46,0.00,,,0.00,Wunderground v.1.15,2013-09-06 17:42:00,
2013-09-06 13:48:00,69.4,47.7,30.18,WNW,286,3.0,7.0,46,0.00,,,0.00,Wunderground v.1.15,2013-09-06 17:48:00,
2013-09-06 13:54:00,70.3,47.3,30.17,SSW,210,2.0,3.0,44,0.00,,,0.00,Wunderground v.1.15,2013-09-06 17:54:00,
2013-09-06 14:01:00,69.5,46.6,30.17,ESE,114,1.0,1.0,44,0.00,,,0.00,Wunderground v.1.15,2013-09-06 18:01:00,
2013-09-06 14:06:00,68.7,47.6,30.17,SW,228,1.0,1.0,47,0.00,,,0.00,Wunderground v.1.15,2013-09-06 18:06:00,
2013-09-06 14:12:00,68.2,45.4,30.17,WNW,294,1.0,2.0,44,0.00,,,0.00,Wunderground v.1.15,2013-09-06 18:12:00,
2013-09-06 14:17:00,67.3,45.2,30.17,West,281,2.0,4.0,45,0.00,,,0.00,Wunderground v.1.15,2013-09-06 18:17:00,
2013-09-06 14:23:00,67.6,47.8,30.17,West,265,2.0,4.0,49,0.00,,,0.00,Wunderground v.1.15,2013-09-06 18:23:00,
2013-09-06 14:29:00,68.2,44.8,30.16,WSW,248,2.0,4.0,43,0.00,,,0.00,Wunderground v.1.15,2013-09-06 18:29:00,
2013-09-06 14:36:00,68.7,45.9,30.16,NNW,333,1.0,2.0,44,0.00,,,0.00,Wunderground v.1.15,2013-09-06 18:36:00,
2013-09-06 14:41:00,67.9,46.9,30.16,WSW,248,1.0,4.0,47,0.00,,,0.00,Wunderground v.1.15,2013-09-06 18:41:00,
2013-09-06 14:47:00,68.1,45.9,30.16,SW,222,2.0,4.0,45,0.00,,,0.00,Wunderground v.1.15,2013-09-06 18:47:00,
2013-09-06 14:53:00,68.8,48.9,30.15,WNW,290,2.0,3.0,49,0.00,,,0.00,Wunderground v.1.15,2013-09-06 18:53:00,
2013-09-06 14:59:00,69.1,47.4,30.15,West,280,2.0,3.0,46,0.00,,,0.00,Wunderground v.1.15,2013-09-06 18:59:00,
2013-09-06 15:04:00,69.3,47.0,30.15,West,264,2.0,4.0,45,0.00,,,0.00,Wunderground v.1.15,2013-09-06 19:04:00,
2013-09-06 15:11:00,69.5,47.8,30.15,SSE,168,2.0,5.0,46,0.00,,,0.00,Wunderground v.1.15,2013-09-06 19:11:00,
2013-09-06 15:16:00,69.8,48.7,30.14,WNW,286,3.0,5.0,47,0.00,,,0.00,Wunderground v.1.15,2013-09-06 19:16:00,
2013-09-06 15:22:00,70.1,46.6,30.14,WNW,295,2.0,4.0,43,0.00,,,0.00,Wunderground v.1.15,2013-09-06 19:22:00,
2013-09-06 15:27:00,69.9,50.4,30.14,SW,236,2.0,4.0,50,0.00,,,0.00,Wunderground v.1.15,2013-09-06 19:27:00,
2013-09-06 15:33:00,70.1,47.8,30.14,West,272,2.0,4.0,45,0.00,,,0.00,Wunderground v.1.15,2013-09-06 19:33:00,
2013-09-06 15:39:00,69.6,48.5,30.14,WSW,248,2.0,4.0,47,0.00,,,0.00,Wunderground v.1.15,2013-09-06 19:39:00,
2013-09-06 15:44:00,69.4,48.3,30.13,WSW,246,3.0,6.0,47,0.00,,,0.00,Wunderground v.1.15,2013-09-06 19:44:00,
2013-09-06 15:51:00,70.1,48.9,30.13,West,281,3.0,3.0,47,0.00,,,0.00,Wunderground v.1.15,2013-09-06 19:51:00,
2013-09-06 15:56:00,69.3,47.0,30.13,West,275,3.0,5.0,45,0.00,,,0.00,Wunderground v.1.15,2013-09-06 19:56:00,
2013-09-06 16:02:00,68.3,48.4,30.13,South,187,2.0,4.0,49,0.00,,,0.00,Wunderground v.1.15,2013-09-06 20:02:00,
2013-09-06 16:07:00,68.0,45.9,30.13,WSW,248,2.0,4.0,45,0.00,,,0.00,Wunderground v.1.15,2013-09-06 20:07:00,
2013-09-06 16:13:00,67.4,45.9,30.12,WSW,248,2.0,2.0,46,0.00,,,0.00,Wunderground v.1.15,2013-09-06 20:13:00,
2013-09-06 16:19:00,67.2,47.4,30.12,WSW,245,2.0,4.0,49,0.00,,,0.00,Wunderground v.1.15,2013-09-06 20:19:00,
2013-09-06 16:24:00,66.8,46.5,30.12,NW,315,2.0,5.0,48,0.00,,,0.00,Wunderground v.1.15,2013-09-06 20:24:00,
2013-09-06 16:31:00,66.4,46.1,30.11,West,262,2.0,2.0,48,0.00,,,0.00,Wunderground v.1.15,2013-09-06 20:31:00,
2013-09-06 16:36:00,66.0,46.8,30.11,NNE,12,3.0,9.0,50,0.00,,,0.00,Wunderground v.1.15,2013-09-06 20:36:00,
2013-09-06 16:42:00,65.4,46.3,30.11,West,271,3.0,3.0,50,0.00,,,0.00,Wunderground v.1.15,2013-09-06 20:42:00,
2013-09-06 16:48:00,65.0,45.9,30.11,West,274,2.0,3.0,50,0.00,,,0.00,Wunderground v.1.15,2013-09-06 20:48:00,
2013-09-06 16:54:00,64.8,46.8,30.11,NNE,16,2.0,3.0,52,0.00,,,0.00,Wunderground v.1.15,2013-09-06 20:54:00,
2013-09-06 16:59:00,64.8,47.3,30.11,NNW,331,2.0,3.0,53,0.00,,,0.00,Wunderground v.1.15,2013-09-06 20:59:00,
2013-09-06 17:06:00,64.8,47.3,30.12,SSW,211,2.0,3.0,53,0.00,,,0.00,Wunderground v.1.15,2013-09-06 21:06:00,
2013-09-06 17:12:00,64.8,46.2,30.12,SW,228,2.0,3.0,51,0.00,,,0.00,Wunderground v.1.15,2013-09-06 21:12:00,
2013-09-06 17:18:00,64.7,46.1,30.12,SW,229,2.0,4.0,51,0.00,,,0.00,Wunderground v.1.15,2013-09-06 21:18:00,
2013-09-06 17:24:00,64.7,46.1,30.12,West,265,2.0,4.0,51,0.00,,,0.00,Wunderground v.1.15,2013-09-06 21:24:00,
2013-09-06 17:31:00,64.6,45.0,30.12,NNW,334,2.0,2.0,49,0.00,,,0.00,Wunderground v.1.15,2013-09-06 21:31:00,
2013-09-06 17:37:00,64.3,45.8,30.12,WNW,283,2.0,3.0,51,0.00,,,0.00,Wunderground v.1.15,2013-09-06 21:37:00,
2013-09-06 17:43:00,64.1,45.6,30.12,WNW,302,1.0,2.0,51,0.00,,,0.00,Wunderground v.1.15,2013-09-06 21:43:00,
2013-09-06 17:49:00,64.1,46.6,30.12,WNW,283,1.0,2.0,53,0.00,,,0.00,Wunderground v.1.15,2013-09-06 21:49:00,
2013-09-06 17:54:00,64.0,48.5,30.11,NW,314,1.0,1.0,57,0.00,,,0.00,Wunderground v.1.15,2013-09-06 21:54:00,
2013-09-06 18:01:00,63.8,46.8,30.12,WNW,296,1.0,1.0,54,0.00,,,0.00,Wunderground v.1.15,2013-09-06 22:01:00,
2013-09-06 18:07:00,63.6,48.1,30.12,NW,324,1.0,2.0,57,0.00,,,0.00,Wunderground v.1.15,2013-09-06 22:07:00,
2013-09-06 18:13:00,63.2,48.6,30.12,WSW,253,1.0,1.0,59,0.00,,,0.00,Wunderground v.1.15,2013-09-06 22:13:00,
2013-09-06 18:19:00,63.0,47.5,30.12,NW,317,1.0,4.0,57,0.00,,,0.00,Wunderground v.1.15,2013-09-06 22:19:00,
2013-09-06 18:26:00,62.7,48.6,30.12,WSW,257,2.0,4.0,60,0.00,,,0.00,Wunderground v.1.15,2013-09-06 22:26:00,
2013-09-06 18:31:00,62.4,48.3,30.11,SW,229,2.0,3.0,60,0.00,,,0.00,Wunderground v.1.15,2013-09-06 22:31:00,
2013-09-06 18:36:00,62.1,50.2,30.11,NW,311,2.0,3.0,65,0.00,,,0.00,Wunderground v.1.15,2013-09-06 22:36:00,
2013-09-06 18:42:00,61.7,48.1,30.11,SW,232,1.0,1.0,61,0.00,,,0.00,Wunderground v.1.15,2013-09-06 22:42:00,
2013-09-06 18:48:00,61.3,49.0,30.11,SW,233,1.0,1.0,64,0.00,,,0.00,Wunderground v.1.15,2013-09-06 22:48:00,
2013-09-06 18:54:00,61.0,50.0,30.11,SW,233,0.0,0.0,67,0.00,,,0.00,Wunderground v.1.15,2013-09-06 22:54:00,
2013-09-06 19:01:00,60.3,50.1,30.11,WNW,303,0.0,1.0,69,0.00,,,0.00,Wunderground v.1.15,2013-09-06 23:01:00,
2013-09-06 19:06:00,59.6,49.0,30.11,WNW,300,1.0,1.0,68,0.00,,,0.00,Wunderground v.1.15,2013-09-06 23:06:00,
2013-09-06 19:11:00,59.0,48.4,30.11,West,267,1.0,1.0,68,0.00,,,0.00,Wunderground v.1.15,2013-09-06 23:11:00,
2013-09-06 19:17:00,58.7,48.2,30.11,West,272,1.0,1.0,68,0.00,,,0.00,Wunderground v.1.15,2013-09-06 23:17:00,
2013-09-06 19:22:00,58.3,48.9,30.11,WNW,293,1.0,1.0,71,0.00,,,0.00,Wunderground v.1.15,2013-09-06 23:22:00,
2013-09-06 19:28:00,57.8,48.5,30.10,WNW,288,1.0,1.0,71,0.00,,,0.00,Wunderground v.1.15,2013-09-06 23:28:00,
2013-09-06 19:33:00,57.5,48.9,30.10,WNW,288,1.0,1.0,73,0.00,,,0.00,Wunderground v.1.15,2013-09-06 23:33:00,
2013-09-06 19:39:00,57.1,48.9,30.11,WNW,288,1.0,1.0,74,0.00,,,0.00,Wunderground v.1.15,2013-09-06 23:39:00,
2013-09-06 19:46:00,56.4,49.3,30.11,NW,313,1.0,1.0,77,0.00,,,0.00,Wunderground v.1.15,2013-09-06 23:46:00,
2013-09-06 19:52:00,55.7,48.9,30.11,NW,313,0.0,0.0,78,0.00,,,0.00,Wunderground v.1.15,2013-09-06 23:52:00,
2013-09-06 19:58:00,55.1,48.7,30.11,NW,313,0.0,0.0,79,0.00,,,0.00,Wunderground v.1.15,2013-09-06 23:58:00,
2013-09-06 20:04:00,54.5,48.5,30.11,NW,313,0.0,1.0,80,0.00,,,0.00,Wunderground v.1.15,2013-09-07 00:04:00,
2013-09-06 20:09:00,53.9,48.2,30.11,NW,313,0.0,1.0,81,0.00,,,0.00,Wunderground v.1.15,2013-09-07 00:09:00,
2013-09-06 20:16:00,53.2,47.8,30.11,NW,313,0.0,1.0,82,0.00,,,0.00,Wunderground v.1.15,2013-09-07 00:16:00,
2013-09-06 20:22:00,52.8,47.8,30.11,NW,313,0.0,0.0,83,0.00,,,0.00,Wunderground v.1.15,2013-09-07 00:22:00,
2013-09-06 20:29:00,52.4,47.7,30.11,NW,313,0.0,0.0,84,0.00,,,0.00,Wunderground v.1.15,2013-09-07 00:29:00,
2013-09-06 20:34:00,52.1,47.4,30.11,NW,313,0.0,0.0,84,0.00,,,0.00,Wunderground v.1.15,2013-09-07 00:34:00,
2013-09-06 20:41:00,51.6,47.2,30.11,NW,313,0.0,0.0,85,0.00,,,0.00,Wunderground v.1.15,2013-09-07 00:41:00,
2013-09-06 20:47:00,51.4,47.0,30.11,NW,313,0.0,0.0,85,0.00,,,0.00,Wunderground v.1.15,2013-09-07 00:47:00,
2013-09-06 20:53:00,51.0,47.0,30.11,NW,313,0.0,0.0,86,0.00,,,0.00,Wunderground v.1.15,2013-09-07 00:53:00,
2013-09-06 20:59:00,50.6,46.6,30.11,NW,313,0.0,1.0,86,0.00,,,0.00,Wunderground v.1.15,2013-09-07 00:59:00,
2013-09-06 21:06:00,50.2,46.5,30.11,NW,313,0.0,1.0,87,0.00,,,0.00,Wunderground v.1.15,2013-09-07 01:06:00,
2013-09-06 21:11:00,49.9,46.2,30.11,NW,313,0.0,0.0,87,0.00,,,0.00,Wunderground v.1.15,2013-09-07 01:11:00,
2013-09-06 21:17:00,49.7,46.0,30.11,NW,313,0.0,0.0,87,0.00,,,0.00,Wunderground v.1.15,2013-09-07 01:17:00,
2013-09-06 21:23:00,49.4,46.0,30.11,NW,313,0.0,0.0,88,0.00,,,0.00,Wunderground v.1.15,2013-09-07 01:23:00,
2013-09-06 21:29:00,49.2,45.8,30.11,NW,313,0.0,0.0,88,0.00,,,0.00,Wunderground v.1.15,2013-09-07 01:29:00,
2013-09-06 21:36:00,49.0,45.6,30.11,NW,313,0.0,1.0,88,0.00,,,0.00,Wunderground v.1.15,2013-09-07 01:36:00,
2013-09-06 21:42:00,48.9,45.5,30.10,NW,313,0.0,0.0,88,0.00,,,0.00,Wunderground v.1.15,2013-09-07 01:42:00,
2013-09-06 21:48:00,48.7,45.3,30.10,NW,313,0.0,0.0,88,0.00,,,0.00,Wunderground v.1.15,2013-09-07 01:48:00,
2013-09-06 21:54:00,48.6,45.2,30.10,NW,313,0.0,1.0,88,0.00,,,0.00,Wunderground v.1.15,2013-09-07 01:54:00,
2013-09-06 22:01:00,48.4,45.0,30.10,NW,313,0.0,0.0,88,0.00,,,0.00,Wunderground v.1.15,2013-09-07 02:01:00,
2013-09-06 22:06:00,48.2,44.8,30.10,NW,313,0.0,0.0,88,0.00,,,0.00,Wunderground v.1.15,2013-09-07 02:06:00,
2013-09-06 22:12:00,48.1,44.7,30.10,NW,313,0.0,0.0,88,0.00,,,0.00,Wunderground v.1.15,2013-09-07 02:12:00,
2013-09-06 22:18:00,47.9,44.5,30.10,NW,313,0.0,0.0,88,0.00,,,0.00,Wunderground v.1.15,2013-09-07 02:18:00,
2013-09-06 22:24:00,47.7,44.3,30.10,NW,313,0.0,0.0,88,0.00,,,0.00,Wunderground v.1.15,2013-09-07 02:24:00,
2013-09-06 22:31:00,47.5,44.1,30.10,NW,313,0.0,0.0,88,0.00,,,0.00,Wunderground v.1.15,2013-09-07 02:31:00,
2013-09-06 22:36:00,47.4,44.0,30.10,NW,313,0.0,1.0,88,0.00,,,0.00,Wunderground v.1.15,2013-09-07 02:36:00,
2013-09-06 22:41:00,47.3,43.9,30.10,NW,313,0.0,0.0,88,0.00,,,0.00,Wunderground v.1.15,2013-09-07 02:41:00,
2013-09-06 22:46:00,47.3,43.9,30.10,NW,313,0.0,1.0,88,0.00,,,0.00,Wunderground v.1.15,2013-09-07 02:46:00,
2013-09-06 22:52:00,47.3,43.9,30.10,NW,313,0.0,1.0,88,0.00,,,0.00,Wunderground v.1.15,2013-09-07 02:52:00,
2013-09-06 22:57:00,47.2,44.1,30.10,NW,313,0.0,1.0,89,0.00,,,0.00,Wunderground v.1.15,2013-09-07 02:57:00,
2013-09-06 23:03:00,47.1,44.0,30.10,NW,313,0.0,0.0,89,0.00,,,0.00,Wunderground v.1.15,2013-09-07 03:03:00,
2013-09-06 23:09:00,47.0,43.9,30.09,NW,313,0.0,0.0,89,0.00,,,0.00,Wunderground v.1.15,2013-09-07 03:09:00,
2013-09-06 23:16:00,47.0,43.9,30.09,NW,313,0.0,1.0,89,0.00,,,0.00,Wunderground v.1.15,2013-09-07 03:16:00,
2013-09-06 23:22:00,47.0,43.9,30.09,NW,313,1.0,1.0,89,0.00,,,0.00,Wunderground v.1.15,2013-09-07 03:22:00,
2013-09-06 23:28:00,47.1,44.0,30.08,NW,313,1.0,1.0,89,0.00,,,0.00,Wunderground v.1.15,2013-09-07 03:28:00,
2013-09-06 23:34:00,47.1,44.0,30.09,NW,313,0.0,1.0,89,0.00,,,0.00,Wunderground v.1.15,2013-09-07 03:34:00,
2013-09-06 23:41:00,47.2,44.1,30.09,NNE,22,1.0,1.0,89,0.00,,,0.00,Wunderground v.1.15,2013-09-07 03:41:00,
2013-09-06 23:47:00,47.2,44.1,30.08,NNE,22,0.0,1.0,89,0.00,,,0.00,Wunderground v.1.15,2013-09-07 03:47:00,
2013-09-06 23:52:00,47.4,44.3,30.08,North,9,0.0,1.0,89,0.00,,,0.00,Wunderground v.1.15,2013-09-07 03:52:00,
2013-09-06 23:58:00,47.6,44.5,30.08,North,355,1.0,2.0,89,0.00,,,0.00,Wunderground v.1.15,2013-09-07 03:58:00,